GW6925 Weather Reports


Display with metric or nautical units.
time (UTC)temp
F
wind
direction
speed
MPH
gust
MPH
rain 1hr
in
rain 24hr
in
rain mn
in
humidity
%
barometer
mb
20260506201753 60 258 4.0 13.0 0.00 0.00 0.00 84 1007.7
20260506201526 59 350 2.0 10.0 0.04 0.09 0.09 90 1007.5
20260506201253 59 304 4.0 17.0 0.00 0.00 0.00 85 1007.9
20260506200752 59 299 4.0 17.0 0.00 0.00 0.00 85 1007.9
20260506200250 59 260 4.0 14.0 0.00 0.00 0.00 85 1007.9
20260506200027 59 285 1.0 8.0 0.05 0.09 0.09 90 1007.6
20260506195746 59 330 3.0 14.0 0.00 0.00 0.00 85 1007.9
20260506195242 59 248 2.0 7.0 0.00 0.00 0.00 85 1007.9
20260506194742 59 261 2.0 8.0 0.00 0.00 0.00 85 1007.9
20260506194513 59 152 1.0 4.0 0.06 0.08 0.08 90 1007.7
20260506193232 60 271 5.0 13.0 0.00 0.00 0.00 83 1007.9
20260506193018 59 140 2.0 12.0 0.08 0.08 0.08 88 1007.8
20260506192732 59 268 4.0 13.0 0.00 0.00 0.00 83 1008.0
20260506192230 59 291 3.0 13.0 0.00 0.00 0.00 82 1008.0
20260506191730 59 288 5.0 13.0 0.00 0.00 0.00 81 1008.0
20260506191523 59 140 3.0 12.0 0.05 0.05 0.05 87 1007.9
20260506191230 60 302 5.0 9.0 0.00 0.00 0.00 81 1008.1
20260506190722 60 264 5.0 9.0 0.00 0.00 0.00 80 1008.1
20260506190218 60 295 3.0 9.0 0.00 0.00 0.00 80 1008.1
20260506190034 60 187 2.0 9.0 0.04 0.04 0.04 86 1007.9
20260506185700 60 336 2.0 8.0 0.00 0.00 0.00 80 1008.4
20260506185159 60 233 2.0 8.0 0.00 0.00 0.00 79 1008.4
20260506184650 60 267 3.0 8.0 0.00 0.00 0.00 78 1008.4
20260506184529 60 236 1.0 9.0 0.02 0.02 0.02 85 1008.2
20260506184145 61 295 4.0 13.0 0.00 0.00 0.00 76 1008.5
20260506183629 62 336 3.0 13.0 0.00 0.00 0.00 73 1008.5
20260506183121 62 328 4.0 11.0 0.00 0.00 0.00 70 1008.5
20260506183016 62 201 3.0 12.0 0.00 0.00 0.00 77 1008.4
20260506182612 62 308 7.0 14.0 0.00 0.00 0.00 69 1008.8
20260506182104 63 332 7.0 17.0 0.00 0.00 0.00 68 1008.8
20260506181603 64 30 7.0 17.0 0.00 0.00 0.00 67 1008.8
20260506181521 63 349 2.0 12.0 0.00 0.00 0.00 74 1008.5
20260506181102 64 280 7.0 16.0 0.00 0.00 0.00 65 1008.7
20260506180559 65 246 7.0 16.0 0.00 0.00 0.00 63 1008.7
20260506180054 65 315 7.0 13.0 0.00 0.00 0.00 62 1008.7
20260506180026 65 304 2.0 8.0 0.00 0.00 0.00 69 1008.6
20260506175553 66 0 7.0 20.0 0.00 0.00 0.00 60 1008.8
20260506175039 66 288 7.0 20.0 0.00 0.00 0.00 60 1008.8
20260506174535 67 326 8.0 15.0 0.00 0.00 0.00 58 1008.8
20260506174527 66 9 5.0 16.0 0.00 0.00 0.00 66 1008.7
20260506174032 67 224 8.0 16.0 0.00 0.00 0.00 59 1008.7
20260506173034 69 177 3.0 14.0 0.00 0.00 0.00 63 1008.6
20260506173031 68 244 7.0 17.0 0.00 0.00 0.00 56 1008.7
20260506172525 68 308 8.0 17.0 0.00 0.00 0.00 55 1008.9
20260506172025 69 241 9.0 20.0 0.00 0.00 0.00 55 1008.9
20260506171520 69 309 4.0 17.0 0.00 0.00 0.00 61 1008.8
20260506171514 69 305 9.0 20.0 0.00 0.00 0.00 54 1008.9
20260506171008 70 325 7.0 16.0 0.00 0.00 0.00 53 1008.8
20260506170503 69 340 6.0 15.0 0.00 0.00 0.00 55 1008.8
20260506170024 68 194 6.0 16.0 0.00 0.00 0.00 62 1008.8
20260506164955 70 179 8.0 16.0 0.00 0.00 0.00 53 1008.8
20260506164524 71 132 8.0 18.0 0.00 0.00 0.00 59 1008.7
20260506164453 70 250 6.0 15.0 0.00 0.00 0.00 53 1008.8
20260506163453 69 299 8.0 15.0 0.00 0.00 0.00 55 1009.0
20260506163042 69 200 3.0 9.0 0.00 0.00 0.00 62 1008.9
20260506162952 69 239 6.0 13.0 0.00 0.00 0.00 55 1009.0
20260506162449 70 237 5.0 14.0 0.00 0.00 0.00 54 1009.3
20260506161516 70 194 4.0 10.0 0.00 0.00 0.00 60 1009.2
20260506161443 70 237 7.0 17.0 0.00 0.00 0.00 53 1009.3
20260506160439 70 263 6.0 15.0 0.00 0.00 0.00 53 1009.4
20260506160023 70 213 4.0 12.0 0.00 0.00 0.00 61 1009.3
20260506155935 70 233 4.0 14.0 0.00 0.00 0.00 53 1009.4
20260506155434 69 316 6.0 17.0 0.00 0.00 0.00 54 1009.7
20260506154534 70 107 8.0 21.0 0.00 0.00 0.00 60 1009.6
20260506154423 70 246 7.0 14.0 0.00 0.00 0.00 53 1009.7
20260506153029 70 154 6.0 14.0 0.00 0.00 0.00 59 1009.6
20260506152855 70 312 6.0 15.0 0.00 0.00 0.00 52 1009.8
20260506152351 71 315 5.0 22.0 0.00 0.00 0.00 53 1009.9
20260506151849 71 248 5.0 22.0 0.00 0.00 0.00 52 1009.9
20260506151537 71 187 4.0 16.0 0.00 0.00 0.00 58 1009.6
20260506151349 70 295 6.0 15.0 0.00 0.00 0.00 54 1009.9
20260506150845 69 335 6.0 13.0 0.00 0.00 0.00 54 1009.9
20260506150346 69 342 5.0 13.0 0.00 0.00 0.00 55 1009.9
20260506150019 70 281 4.0 11.0 0.00 0.00 0.00 63 1009.7
20260506145339 68 267 6.0 10.0 0.00 0.00 0.00 57 1010.1
20260506144834 68 264 6.0 14.0 0.00 0.00 0.00 57 1010.1
20260506144522 68 214 7.0 13.0 0.00 0.00 0.00 64 1009.8
20260506144333 67 304 6.0 14.0 0.00 0.00 0.00 58 1010.2
20260506143833 67 295 6.0 14.0 0.00 0.00 0.00 58 1010.2
20260506143331 67 354 6.0 14.0 0.00 0.00 0.00 57 1010.2
20260506143027 67 178 4.0 14.0 0.00 0.00 0.00 64 1009.9
20260506142829 67 261 5.0 13.0 0.00 0.00 0.00 57 1009.8
20260506142325 67 309 5.0 13.0 0.00 0.00 0.00 58 1009.8
20260506141527 67 190 6.0 16.0 0.00 0.00 0.00 65 1009.6
20260506140819 67 268 6.0 17.0 0.00 0.00 0.00 57 1009.9
20260506140315 68 263 6.0 10.0 0.00 0.00 0.00 57 1009.9
20260506140033 68 189 3.0 10.0 0.00 0.00 0.00 66 1009.6
20260506135813 67 261 7.0 13.0 0.00 0.00 0.00 59 1009.9
20260506135310 67 289 7.0 13.0 0.00 0.00 0.00 58 1009.9
20260506134809 67 224 6.0 13.0 0.00 0.00 0.00 60 1009.9
20260506134524 67 250 3.0 18.0 0.00 0.00 0.00 66 1009.6
20260506134307 67 320 6.0 13.0 0.00 0.00 0.00 59 1010.1
20260506133801 67 258 6.0 13.0 0.00 0.00 0.00 60 1010.1
20260506133255 67 251 7.0 22.0 0.00 0.00 0.00 60 1010.1
20260506133025 67 172 4.0 16.0 0.00 0.00 0.00 67 1009.8
20260506132243 66 281 6.0 13.0 0.00 0.00 0.00 63 1010.5
20260506131741 65 301 7.0 14.0 0.00 0.00 0.00 64 1010.5
20260506131531 66 258 5.0 11.0 0.00 0.00 0.00 70 1010.2
20260506131239 65 277 6.0 14.0 0.00 0.00 0.00 66 1010.5
20260506130233 64 291 5.0 15.0 0.00 0.00 0.00 66 1010.5
20260506130030 64 259 5.0 10.0 0.00 0.00 0.00 73 1010.3
20260506125731 63 268 6.0 15.0 0.00 0.00 0.00 67 1010.5
20260506125232 63 319 5.0 9.0 0.00 0.00 0.00 67 1010.5
20260506124732 63 192 6.0 10.0 0.00 0.00 0.00 68 1010.5
20260506124519 63 271 1.0 13.0 0.00 0.00 0.00 74 1010.2
20260506124229 63 260 5.0 11.0 0.00 0.00 0.00 68 1010.6
20260506123723 63 250 3.0 11.0 0.00 0.00 0.00 69 1010.6
20260506123023 63 65 2.0 7.0 0.00 0.00 0.00 76 1010.2
20260506122717 62 271 6.0 15.0 0.00 0.00 0.00 69 1010.5
20260506122213 62 0 6.0 15.0 0.00 0.00 0.00 69 1010.5
20260506121713 62 260 5.0 13.0 0.00 0.00 0.00 69 1010.5
20260506121508 62 159 6.0 12.0 0.00 0.00 0.00 76 1010.1
20260506120159 62 315 5.0 13.0 0.00 0.00 0.00 72 1010.5
20260506120014 62 138 4.0 12.0 0.00 0.00 0.00 78 1010.1
20260506115641 61 342 5.0 13.0 0.00 0.00 0.00 72 1010.9
20260506115135 61 256 4.0 11.0 0.00 0.00 0.00 72 1010.9
20260506114629 60 323 3.0 8.0 0.00 0.00 0.00 74 1010.9
20260506114519 61 296 3.0 11.0 0.00 0.00 0.00 80 1010.5
20260506114123 60 330 4.0 10.0 0.00 0.00 0.00 74 1010.9
20260506113614 60 253 4.0 10.0 0.00 0.00 0.00 74 1010.9
20260506113109 60 256 3.0 10.0 0.00 0.00 0.00 74 1010.9
20260506113024 59 192 2.0 12.0 0.00 0.00 0.00 81 1010.5
20260506112105 60 287 4.0 13.0 0.00 0.00 0.00 74 1011.0
20260506111603 60 272 3.0 13.0 0.00 0.00 0.00 75 1011.0
20260506111530 60 331 4.0 11.0 0.00 0.00 0.00 81 1010.7
20260506110553 59 285 4.0 13.0 0.00 0.00 0.00 76 1010.9
20260506110051 59 316 4.0 13.0 0.00 0.00 0.00 76 1010.9
20260506110011 59 290 2.0 8.0 0.00 0.00 0.00 82 1010.6
20260506105551 59 278 4.0 11.0 0.00 0.00 0.00 76 1010.8
20260506105045 59 251 4.0 11.0 0.00 0.00 0.00 76 1010.8
20260506104543 58 256 3.0 10.0 0.00 0.00 0.00 76 1010.8
20260506104516 58 170 1.0 7.0 0.00 0.00 0.00 83 1010.5
20260506104043 58 232 4.0 11.0 0.00 0.00 0.00 76 1010.8
20260506103539 58 244 3.0 11.0 0.00 0.00 0.00 76 1010.8
20260506103033 59 241 3.0 10.0 0.00 0.00 0.00 76 1010.8
20260506103022 58 120 2.0 6.0 0.00 0.00 0.00 82 1010.5
20260506102532 59 287 3.0 10.0 0.00 0.00 0.00 76 1010.6
20260506102034 58 309 3.0 10.0 0.00 0.00 0.00 76 1010.6
20260506101530 58 254 3.0 10.0 0.00 0.00 0.00 76 1010.6
20260506101526 58 219 2.0 7.0 0.00 0.00 0.00 82 1010.4
20260506100515 58 247 3.0 10.0 0.00 0.00 0.00 76 1010.7
20260506100028 58 142 1.0 5.0 0.00 0.00 0.00 82 1010.6
20260506100014 58 257 3.0 9.0 0.00 0.00 0.00 76 1010.7
20260506095511 58 250 2.0 8.0 0.00 0.00 0.00 76 1010.5
20260506094955 59 247 2.0 8.0 0.00 0.00 0.00 75 1010.5
20260506094512 58 159 3.0 8.0 0.00 0.00 0.00 82 1010.4
20260506094454 58 274 3.0 10.0 0.00 0.00 0.00 75 1010.5
20260506093951 59 305 4.0 10.0 0.00 0.00 0.00 75 1010.4
20260506093451 59 318 4.0 10.0 0.00 0.00 0.00 75 1010.4
20260506093022 58 148 1.0 6.0 0.00 0.00 0.00 82 1010.3
20260506092945 59 241 4.0 10.0 0.00 0.00 0.00 75 1010.4
20260506092446 59 292 4.0 11.0 0.00 0.00 0.00 76 1010.5
20260506091924 59 333 4.0 11.0 0.00 0.00 0.00 75 1010.5
20260506091524 58 264 2.0 14.0 0.00 0.00 0.00 81 1010.4
20260506090416 59 304 3.0 9.0 0.00 0.00 0.00 75 1010.6
20260506090027 58 47 2.0 9.0 0.00 0.00 0.00 81 1010.4
20260506085913 59 282 3.0 8.0 0.00 0.00 0.00 75 1010.6
20260506085412 59 302 4.0 11.0 0.00 0.00 0.00 75 1010.7
20260506084910 59 311 5.0 11.0 0.00 0.00 0.00 74 1010.7
20260506084512 58 160 4.0 10.0 0.00 0.00 0.00 81 1010.4
20260506084406 59 278 5.0 15.0 0.00 0.00 0.00 74 1010.7
20260506083903 59 289 4.0 15.0 0.00 0.00 0.00 74 1010.8
20260506083357 59 323 3.0 10.0 0.00 0.00 0.00 74 1010.8
20260506083019 58 204 4.0 11.0 0.00 0.00 0.00 81 1010.7
20260506082337 59 322 5.0 13.0 0.00 0.00 0.00 73 1010.8
20260506081831 59 340 6.0 13.0 0.00 0.00 0.00 73 1010.8
20260506081522 59 285 2.0 11.0 0.00 0.00 0.00 80 1010.7
20260506080319 59 294 4.0 13.0 0.00 0.00 0.00 73 1010.8
20260506073302 59 312 5.0 17.0 0.00 0.00 0.00 73 1010.9
20260506073014 59 214 3.0 12.0 0.00 0.00 0.00 79 1010.7
20260506072801 59 287 6.0 15.0 0.00 0.00 0.00 72 1010.7
20260506072256 60 250 5.0 15.0 0.00 0.00 0.00 72 1010.7
20260506071521 59 110 1.0 16.0 0.00 0.00 0.00 78 1010.6
20260506071252 60 289 5.0 20.0 0.00 0.00 0.00 72 1010.7
20260506070749 60 304 5.0 17.0 0.00 0.00 0.00 71 1010.7
20260506070241 60 256 5.0 15.0 0.00 0.00 0.00 71 1010.7
20260506061714 61 232 6.0 17.0 0.00 0.00 0.00 68 1010.5
20260506061518 60 312 3.0 10.0 0.00 0.00 0.00 75 1010.5
20260506061209 61 302 6.0 14.0 0.00 0.00 0.00 68 1010.5
20260506060204 62 0 7.0 20.0 0.00 0.00 0.00 67 1010.5
20260506051152 63 332 7.0 15.0 0.00 0.00 0.00 63 1010.9
20260506050653 63 278 7.0 17.0 0.00 0.00 0.00 63 1010.9
20260506050152 63 4 6.0 17.0 0.00 0.00 0.00 62 1010.9
20260506044510 62 179 2.0 11.0 0.00 0.00 0.00 69 1010.9
20260506044124 63 258 6.0 21.0 0.00 0.00 0.00 62 1011.2
20260506043616 63 268 6.0 21.0 0.00 0.00 0.00 62 1011.2
20260506043114 63 301 6.0 16.0 0.00 0.00 0.00 62 1011.2
20260506043008 62 99 2.0 12.0 0.00 0.00 0.00 68 1011.2
20260506042614 63 312 7.0 15.0 0.00 0.00 0.00 61 1011.1
20260506042114 63 281 7.0 14.0 0.00 0.00 0.00 61 1011.1
20260506041612 63 304 7.0 17.0 0.00 0.00 0.00 60 1011.1
20260506041519 63 150 3.0 14.0 0.00 0.00 0.00 67 1011.1
20260506041110 63 301 7.0 17.0 0.00 0.00 0.00 60 1011.1
20260506040610 63 325 6.0 21.0 0.00 0.00 0.00 60 1011.1
20260506040018 63 199 2.0 16.0 0.00 0.00 0.00 66 1011.0
20260506035102 63 301 7.0 15.0 0.00 0.00 0.00 59 1011.0
20260506034533 62 167 4.0 12.0 0.00 0.00 0.00 66 1010.8
20260506034050 63 333 7.0 15.0 0.00 0.00 0.00 59 1011.0
20260506033546 63 0 7.0 15.0 0.00 0.00 0.00 59 1011.0
20260506033044 63 289 5.0 13.0 0.00 0.00 0.00 59 1011.0
20260506033007 62 69 2.0 11.0 0.00 0.00 0.00 66 1011.0
20260506032543 63 302 5.0 13.0 0.00 0.00 0.00 59 1011.0
20260506032040 63 230 5.0 13.0 0.00 0.00 0.00 59 1011.0
20260506031538 63 323 6.0 13.0 0.00 0.00 0.00 58 1011.0
20260506031513 62 296 4.0 13.0 0.00 0.00 0.00 65 1010.9
20260506031034 63 319 6.0 18.0 0.00 0.00 0.00 58 1011.0
20260506030532 63 308 6.0 18.0 0.00 0.00 0.00 58 1011.0
20260506030032 63 320 6.0 15.0 0.00 0.00 0.00 58 1011.0
20260506030015 62 284 3.0 15.0 0.00 0.00 0.00 65 1010.8
20260506025534 63 0 6.0 15.0 0.00 0.00 0.00 58 1011.1
20260506025032 63 243 6.0 13.0 0.00 0.00 0.00 57 1011.1
20260506024532 63 296 6.0 13.0 0.00 0.00 0.00 57 1011.1
20260506024519 62 59 4.0 10.0 0.00 0.00 0.00 65 1010.8
20260506024030 63 295 5.0 13.0 0.00 0.00 0.00 58 1011.0
20260506023530 63 356 5.0 10.0 0.00 0.00 0.00 57 1011.0
20260506023026 62 207 2.0 12.0 0.00 0.00 0.00 65 1010.8
20260506023024 63 332 5.0 13.0 0.00 0.00 0.00 57 1011.0
20260506022522 62 299 6.0 15.0 0.00 0.00 0.00 58 1011.1
20260506022020 63 298 6.0 15.0 0.00 0.00 0.00 58 1011.1
20260506021507 62 112 3.0 12.0 0.00 0.00 0.00 65 1010.7
20260506021014 62 356 6.0 20.0 0.00 0.00 0.00 58 1011.1
20260506020515 63 340 7.0 20.0 0.00 0.00 0.00 58 1011.1
20260506020014 62 179 4.0 11.0 0.00 0.00 0.00 65 1010.7
20260506020010 63 318 7.0 17.0 0.00 0.00 0.00 57 1011.1
20260506015506 62 337 8.0 22.0 0.00 0.00 0.00 57 1011.0
20260506015004 62 320 7.0 22.0 0.00 0.00 0.00 58 1011.0
20260506014523 62 249 4.0 12.0 0.00 0.00 0.00 65 1010.6
20260506014502 62 339 6.0 17.0 0.00 0.00 0.00 58 1011.0
20260506014001 62 326 6.0 17.0 0.00 0.00 0.00 57 1011.0
20260506013501 62 260 6.0 14.0 0.00 0.00 0.00 58 1011.0
20260506013036 62 204 5.0 12.0 0.00 0.00 0.00 64 1010.6
20260506012958 62 256 6.0 14.0 0.00 0.00 0.00 58 1011.0
20260506012453 62 248 6.0 13.0 0.00 0.00 0.00 57 1010.8
20260506011941 62 256 6.0 15.0 0.00 0.00 0.00 57 1010.8
20260506011528 62 330 4.0 10.0 0.00 0.00 0.00 64 1010.5
20260506011434 62 352 6.0 16.0 0.00 0.00 0.00 57 1010.8
20260506010926 62 305 6.0 16.0 0.00 0.00 0.00 57 1010.5
20260506010412 62 241 5.0 13.0 0.00 0.00 0.00 57 1010.5
20260506010014 62 286 3.0 11.0 0.00 0.00 0.00 63 1010.3
20260506005401 63 302 6.0 14.0 0.00 0.00 0.00 56 1010.5
20260506004847 63 240 5.0 13.0 0.00 0.00 0.00 56 1010.5
20260506004518 62 258 3.0 15.0 0.00 0.00 0.00 63 1010.2
20260506004340 63 333 6.0 13.0 0.00 0.00 0.00 55 1010.2
20260506003835 63 333 6.0 13.0 0.00 0.00 0.00 55 1010.2
20260506003334 63 0 6.0 13.0 0.00 0.00 0.00 55 1010.2
20260506003024 63 289 3.0 13.0 0.00 0.00 0.00 62 1010.1
20260506002323 64 304 6.0 15.0 0.00 0.00 0.00 54 1010.0
20260506001819 64 254 6.0 15.0 0.00 0.00 0.00 55 1010.0
20260506001522 63 184 2.0 11.0 0.00 0.00 0.00 61 1009.9
20260506001312 64 356 6.0 13.0 0.00 0.00 0.00 54 1009.9
20260506000806 64 306 6.0 15.0 0.00 0.00 0.00 54 1009.9
20260506000306 64 343 6.0 15.0 0.00 0.00 0.00 53 1009.9
20260506000007 64 101 3.0 13.0 0.00 0.00 0.00 61 1009.6
20260505235804 65 335 4.0 10.0 0.00 0.00 0.00 53 1009.6
20260505235254 65 271 4.0 10.0 0.00 0.00 0.00 52 1009.6
20260505234753 65 339 5.0 10.0 0.00 0.00 0.00 52 1009.6
20260505234512 65 290 2.0 8.0 0.00 0.00 0.00 59 1009.3
20260505234244 66 304 6.0 13.0 0.00 0.00 0.00 51 1009.3
20260505233026 66 173 4.0 14.0 0.00 0.00 0.00 56 1009.0
20260505232729 67 282 5.0 15.0 0.00 0.00 0.00 49 1009.3
20260505231524 67 304 5.0 14.0 0.00 0.00 0.00 55 1009.0
20260505231224 68 295 5.0 15.0 0.00 0.00 0.00 47 1008.9
20260505230720 68 301 6.0 15.0 0.00 0.00 0.00 47 1008.9
20260505230220 69 304 5.0 13.0 0.00 0.00 0.00 45 1008.9
20260505230025 68 270 5.0 11.0 0.00 0.00 0.00 52 1008.7
20260505225714 69 291 5.0 10.0 0.00 0.00 0.00 44 1008.5
20260505225156 70 248 6.0 10.0 0.00 0.00 0.00 43 1008.5
20260505224652 70 272 7.0 20.0 0.00 0.00 0.00 42 1008.5
20260505224514 70 115 4.0 13.0 0.00 0.00 0.00 49 1008.3
20260505224148 71 301 7.0 20.0 0.00 0.00 0.00 42 1008.3
20260505223640 71 323 6.0 13.0 0.00 0.00 0.00 41 1008.3
20260505223016 71 153 6.0 15.0 0.00 0.00 0.00 47 1008.1
20260505221556 72 210 8.0 22.0 0.00 0.00 0.00 39 1008.3
20260505221522 72 223 4.0 16.0 0.00 0.00 0.00 46 1008.1
20260505221051 72 318 7.0 18.0 0.00 0.00 0.00 39 1008.3
20260505220552 72 0 6.0 18.0 0.00 0.00 0.00 39 1008.3
20260505220037 72 279 4.0 20.0 0.00 0.00 0.00 46 1008.0
20260505220032 73 339 8.0 18.0 0.00 0.00 0.00 39 1008.3
20260505215524 73 323 7.0 18.0 0.00 0.00 0.00 37 1008.3
20260505215019 73 229 6.0 17.0 0.00 0.00 0.00 39 1008.3
20260505214534 73 78 2.0 16.0 0.00 0.00 0.00 46 1008.0
20260505213512 74 349 8.0 17.0 0.00 0.00 0.00 37 1008.2
20260505213014 74 286 4.0 13.0 0.00 0.00 0.00 46 1007.8
20260505213008 74 0 8.0 15.0 0.00 0.00 0.00 37 1008.2
20260505212504 74 298 7.0 15.0 0.00 0.00 0.00 37 1008.2
20260505212004 74 299 6.0 14.0 0.00 0.00 0.00 39 1008.2
20260505211520 74 318 3.0 13.0 0.00 0.00 0.00 47 1007.8
20260505211501 74 256 6.0 15.0 0.00 0.00 0.00 40 1008.2
20260505210024 74 291 4.0 19.0 0.00 0.00 0.00 46 1007.8
20260505205958 75 243 7.0 20.0 0.00 0.00 0.00 38 1008.3
20260505205455 75 292 7.0 17.0 0.00 0.00 0.00 39 1008.2
20260505204953 75 236 7.0 16.0 0.00 0.00 0.00 38 1008.2
20260505204526 75 146 6.0 18.0 0.00 0.00 0.00 45 1007.8
20260505204452 75 275 8.0 21.0 0.00 0.00 0.00 37 1008.2
20260505203947 76 308 8.0 21.0 0.00 0.00 0.00 37 1008.0
20260505203440 76 264 7.0 15.0 0.00 0.00 0.00 36 1008.0
20260505203026 76 183 4.0 15.0 0.00 0.00 0.00 45 1007.7
20260505202928 76 258 7.0 15.0 0.00 0.00 0.00 35 1008.0
20260505202424 77 237 5.0 14.0 0.00 0.00 0.00 35 1008.1